Regional Weather Roundup
Issued by NWS Boston, MA

Current Version | Previous Version | Text Only | Print | Product List | Glossary Off
Versions: 1 2 3 4 5 6 7 8 9 10 11 12 13 14 15 16 17 18 19 20 21 22 23 24 25 26 27

000
ASUS41 KBOX 240910
RWRBOX

REGIONAL WEATHER ROUNDUP
NATIONAL WEATHER SERVICE BOSTON/NORTON MA
500 AM EDT TUE APR 24 2018

NOTE:  "FAIR" INDICATES FEW OR NO CLOUDS BELOW 12,000 FEET WITH NO
SIGNIFICANT WEATHER AND/OR OBSTRUCTIONS TO VISIBILITY.

MAZALL-241000-
EASTERN MASSACHUSETTS

CITY           SKY/WX    TMP DP  RH WIND       PRES   REMARKS
BOSTON         FAIR      43  31  62 SW8       30.40F
BEVERLY        FAIR      41  26  55 SW5       30.39S
LAWRENCE       FAIR      43  25  49 SW6       30.40S
BEDFORD        FAIR      39  26  59 CALM      30.38F
BLUE HILL        N/A     40  32  73 SW14      30.37F
NORWOOD        FAIR      40  34  79 CALM      30.41S
MARSHFIELD     FAIR      39  32  75 SW6       30.41S
PLYMOUTH       FAIR      40  34  79 SW5       30.42F
TAUNTON        FAIR      30  29  96 CALM      30.42S
NEW BEDFORD    FAIR      32  31  96 CALM      30.42F
$$

MAZALL-241000-
CAPE COD AND THE ISLANDS

CITY           SKY/WX    TMP DP  RH WIND       PRES   REMARKS
FALMOUTH         N/A     30  28  93 CALM      30.44
HYANNIS        FAIR      33  31  92 CALM      30.42S
CHATHAM        FAIR      42  39  89 SW3       30.44F
PROVINCETOWN   FAIR      42  37  82 S8        30.43S
NANTUCKET      FAIR      39  39 100 S5        30.44F
MARTHAS VNYRD  FOG       26  25  96 CALM      30.43S VSB 1
$$

MAZALL-241000-
CENTRAL AND WESTERN MASSACHUSETTS

CITY           SKY/WX    TMP DP  RH WIND       PRES   REMARKS
WORCESTER      FAIR      41  26  55 W13       30.37S
FITCHBURG      FAIR      46  30  53 NW8       30.38F
ORANGE         FAIR      30  27  88 CALM      30.39F
SPRINGFIELD    FAIR      31  28  86 CALM      30.39S
WESTFIELD      FAIR      34  29  82 CALM      30.39F
NORTH ADAMS    FAIR      39  24  55 E9        30.37S
PITTSFIELD     FAIR      35  26  69 CALM      30.35F
$$

RIZALL-241000-
RHODE ISLAND

CITY           SKY/WX    TMP DP  RH WIND       PRES   REMARKS
PROVIDENCE     FAIR      37  35  92 CALM      30.42F
NEWPORT        FAIR      39  37  92 S5        30.42S
BLOCK ISLAND   FAIR      43  38  82 S8        30.43F
SMITHFIELD     FAIR      34  30  85 MISG      30.40F
WESTERLY       FOG       32  32 100 CALM      30.43F VSB 1/4
$$

CTZALL-241000-
CONNECTICUT

CITY           SKY/WX    TMP DP  RH WIND       PRES   REMARKS
BRADLEY INTL   FAIR      39  33  79 S5        30.40S
HARTFORD       FAIR      40  34  79 CALM      30.41S
BRIDGEPORT     FAIR      40  37  89 CALM      30.41F
DANBURY        FAIR      32  30  92 CALM      30.41S
GROTON         FAIR      34  34 100 N3        30.42F
NEW HAVEN      FAIR      35  32  88 CALM      30.41F
CHESTER        FAIR      37  36  93 CALM      30.41S
MERIDEN        FAIR      33  31  92 CALM      30.42S
WILLIMANTIC    FAIR      32  28  85 CALM      30.43S
OXFORD         FAIR      39  36  89 CALM      30.40F
$$

MEZ002-015-021-024-NHZ003-005-008-011-012-014-VTZ005-008-241000-
NORTHERN NEW ENGLAND

CITY           SKY/WX    TMP DP  RH WIND       PRES   REMARKS
PORTLAND ME    FAIR      41  25  53 S6        30.36F
BANGOR ME      FAIR      40  29  64 S8        30.32F
CONCORD NH     FAIR      36  25  64 CALM      30.37F
MANCHESTER NH  FAIR      43  25  49 CALM      30.36F
NASHUA NH      FAIR      37  27  67 CALM      30.38F
PORTSMOUTH NH  NOT AVBL
JAFFREY NH     FAIR      32  28  85 S5        30.36F WCI  27
KEENE NH       FAIR      30  27  88 S3        30.39S
BURLINGTON VT  FAIR      52  22  30 S13       30.28S
MT. WASHINGTON MOCLDY    30  18  59 W51G59      N/A  WCI  12
$$

NYZ052-076-241000-
EASTERN NEW YORK

CITY           SKY/WX    TMP DP  RH WIND       PRES   REMARKS
ALBANY         FAIR      46  25  43 S6        30.35F
NEW YORK CITY  FAIR      47  42  83 SE5       30.40S
$$

ANZALL-241000-
MARINE OBSERVATIONS

STATION/POSITION TIME  TEMP    WIND        PRES    VSBY  WAVE
                       AIR SEA DIR/SP/G                  HT/PER
                 (UTC) (F)     (DEG/KT/KT) (MB)    (MI)  (FT/S)
BOSTON BUOY      0850   44 44  180/  8/ 10 1028.4F         1
BUZZARDS BAY     NOT AVBL
NANTUCKET SOUND  0750   44 44  190/  6/  8 1030.6          0
MASS BAY-STELLWA 0804   44 44              1028.2F         1/ 3
ISLE OF SHOALS   0900   44     210/  9/  9 1028.6F
S OF BLOCK IS    0843      44                N/A           1/15
$$

......................KEY.........................
  SKY/WX - SKY CONDITION/PRESENT WEATHER
  TMP    - TEMPERATURE IN FAHRENHEIT
  DWPT   - DEWPOINT IN FAHRENHEIT
  RH     - RELATIVE HUMIDITY IN PERCENT
  WIND   - DIRECTION AND SPEED IN MPH
  PRES   - MEAN SEA LEVEL PRESSURE IN INCHES OF HG
  WCI    - WIND CHILL INDEX
  VSB    - VISIBILITY IN MILES
  HX     - HEAT INDEX
  TC     - TEMPERATURE IN CELSIUS
  VRB    - VARIABLE WIND DIRECTION
  N/A    - NOT AVAILABLE




USA.gov is the U.S. government's official web portal to all federal, state and local government web resources and services.